DAL264 KATL-KSAV

Flight info

Callsign DAL264
Flight time 0h 34m
Altitude 21000
Route VRSTY3 NOKIE DBN LOTTS SAV
Aircraft B738/M-SDE2E3FGHIRWXY/LB1

Departure

Time 2026-05-07 18:37
Airport Hartsfield Jackson Atlanta International Airport (KATL)

Arrival

Time 2026-05-07 19:12
Airport Savannah Hilton Head International Airport (KSAV)
Time Latitude Longitude Altitude Speed Heading
2026-05-07 18:05 33.63842 -84.43862 1005 ft 0 kts 270°
2026-05-07 18:24 33.63842 -84.43840 1005 ft 4 kts 270°
2026-05-07 18:25 33.63841 -84.43808 1005 ft 4 kts 270°
2026-05-07 18:25 33.63841 -84.43791 1005 ft 1 kts 270°
2026-05-07 18:25 33.63841 -84.43789 1005 ft 0 kts 270°
2026-05-07 18:28 33.63819 -84.43809 1005 ft 8 kts 179°
2026-05-07 18:28 33.63771 -84.43787 1005 ft 6 kts 168°
2026-05-07 18:28 33.63715 -84.43786 1005 ft 11 kts 177°
2026-05-07 18:28 33.63664 -84.43713 1005 ft 12 kts 96°
2026-05-07 18:29 33.63663 -84.43572 1005 ft 18 kts 90°
2026-05-07 18:29 33.63664 -84.43425 1005 ft 17 kts 90°
2026-05-07 18:29 33.63664 -84.43284 1005 ft 17 kts 91°
2026-05-07 18:29 33.63663 -84.43148 1005 ft 16 kts 89°
2026-05-07 18:30 33.63664 -84.43017 1005 ft 15 kts 89°
2026-05-07 18:30 33.63664 -84.42891 1005 ft 15 kts 91°
2026-05-07 18:30 33.63662 -84.42772 1005 ft 14 kts 93°
2026-05-07 18:30 33.63654 -84.42657 1006 ft 14 kts 94°
2026-05-07 18:31 33.63655 -84.42515 1006 ft 17 kts 89°
2026-05-07 18:31 33.63654 -84.42373 1006 ft 17 kts 90°
2026-05-07 18:31 33.63655 -84.42235 1006 ft 16 kts 89°
2026-05-07 18:31 33.63655 -84.42104 1006 ft 15 kts 91°
2026-05-07 18:32 33.63655 -84.41961 1005 ft 20 kts 90°
2026-05-07 18:32 33.63655 -84.41792 1005 ft 20 kts 90°
2026-05-07 18:32 33.63655 -84.41626 1005 ft 20 kts 90°
2026-05-07 18:32 33.63655 -84.41465 1005 ft 19 kts 90°
2026-05-07 18:33 33.63655 -84.41310 1005 ft 18 kts 90°
2026-05-07 18:33 33.63655 -84.41159 1005 ft 18 kts 89°
2026-05-07 18:33 33.63655 -84.41014 1005 ft 17 kts 90°
2026-05-07 18:33 33.63624 -84.40909 1005 ft 11 kts 162°
2026-05-07 18:34 33.63573 -84.40909 1005 ft 0 kts 183°
2026-05-07 18:35 33.63530 -84.40912 1006 ft 12 kts 183°
2026-05-07 18:36 33.63474 -84.40937 1006 ft 10 kts 244°
2026-05-07 18:36 33.63472 -84.40963 1006 ft 0 kts 270°
2026-05-07 18:36 33.63472 -84.40970 1006 ft 11 kts 271°
2026-05-07 18:36 33.63472 -84.41413 1005 ft 93 kts 270°
2026-05-07 18:37 33.63474 -84.42481 1050 ft 157 kts 271°
2026-05-07 18:37 33.63438 -84.43853 1747 ft 170 kts 271°
2026-05-07 18:37 33.63404 -84.45245 2705 ft 173 kts 272°
2026-05-07 18:37 33.63414 -84.46816 3037 ft 201 kts 272°
2026-05-07 18:38 33.63426 -84.48580 3364 ft 220 kts 271°
2026-05-07 18:38 33.63435 -84.50456 3871 ft 226 kts 271°
2026-05-07 18:38 33.63442 -84.52380 4432 ft 231 kts 270°
2026-05-07 18:38 33.63446 -84.54300 5170 ft 227 kts 270°
2026-05-07 18:39 33.63450 -84.56224 5731 ft 238 kts 270°
2026-05-07 18:39 33.63451 -84.58252 6354 ft 246 kts 270°
2026-05-07 18:39 33.63452 -84.60301 7234 ft 245 kts 270°
2026-05-07 18:39 33.63453 -84.62345 8115 ft 245 kts 270°
2026-05-07 18:40 33.63234 -84.64347 8915 ft 250 kts 251°
2026-05-07 18:40 33.62349 -84.66154 9601 ft 256 kts 234°
2026-05-07 18:40 33.60937 -84.67541 9956 ft 269 kts 218°
2026-05-07 18:40 33.59309 -84.68685 9967 ft 272 kts 216°
2026-05-07 18:41 33.57509 -84.69456 9982 ft 284 kts 195°
2026-05-07 18:41 33.55496 -84.69451 9987 ft 295 kts 181°
2026-05-07 18:41 33.53455 -84.69074 9994 ft 300 kts 178°
2026-05-07 18:41 33.51390 -84.68626 9994 ft 302 kts 178°
2026-05-07 18:42 33.49312 -84.68195 10001 ft 305 kts 177°
2026-05-07 18:42 33.47216 -84.67178 10035 ft 350 kts 149°
2026-05-07 18:42 33.45386 -84.65043 10277 ft 383 kts 137°
2026-05-07 18:42 33.43576 -84.62601 10441 ft 409 kts 136°
2026-05-07 18:43 33.41658 -84.59959 10646 ft 429 kts 135°
2026-05-07 18:43 33.39675 -84.57230 11067 ft 439 kts 136°
2026-05-07 18:43 33.37652 -84.54470 11631 ft 443 kts 136°
2026-05-07 18:43 33.35592 -84.51690 12135 ft 448 kts 136°
2026-05-07 18:44 33.33506 -84.48902 12599 ft 453 kts 137°
2026-05-07 18:44 33.31387 -84.46090 13077 ft 458 kts 137°
2026-05-07 18:44 33.29237 -84.43249 13538 ft 463 kts 137°
2026-05-07 18:44 33.27791 -84.41342 13833 ft 467 kts 137°
2026-05-07 18:45 33.24885 -84.37512 14409 ft 471 kts 138°
2026-05-07 18:45 33.22680 -84.34607 14881 ft 474 kts 138°
2026-05-07 18:45 33.20453 -84.31676 15312 ft 478 kts 139°
2026-05-07 18:45 33.18942 -84.29688 15582 ft 480 kts 139°
2026-05-07 18:46 33.16685 -84.26721 16013 ft 483 kts 139°
2026-05-07 18:46 33.14450 -84.23785 16426 ft 486 kts 139°
2026-05-07 18:46 33.12171 -84.20794 16819 ft 489 kts 140°
2026-05-07 18:46 33.09871 -84.17778 17196 ft 492 kts 140°
2026-05-07 18:47 33.07561 -84.14752 17566 ft 496 kts 140°
2026-05-07 18:47 33.05227 -84.11696 17942 ft 499 kts 141°
2026-05-07 18:47 33.02884 -84.08631 18328 ft 502 kts 141°
2026-05-07 18:47 33.00529 -84.05550 18645 ft 503 kts 140°
2026-05-07 18:48 32.98176 -84.02473 19097 ft 502 kts 140°
2026-05-07 18:48 32.95821 -83.99396 19440 ft 503 kts 140°
2026-05-07 18:48 32.93453 -83.96309 19724 ft 506 kts 140°
2026-05-07 18:48 32.91072 -83.93209 20006 ft 508 kts 140°
2026-05-07 18:49 32.88677 -83.90092 20295 ft 510 kts 140°
2026-05-07 18:49 32.86281 -83.86975 20599 ft 511 kts 140°
2026-05-07 18:49 32.83881 -83.83856 20888 ft 512 kts 140°
2026-05-07 18:49 32.81468 -83.80722 20951 ft 516 kts 140°
2026-05-07 18:50 32.79073 -83.77614 20952 ft 515 kts 140°
2026-05-07 18:50 32.76662 -83.74483 20956 ft 513 kts 140°
2026-05-07 18:50 32.74249 -83.71357 20960 ft 513 kts 140°
2026-05-07 18:50 32.71896 -83.68147 20929 ft 519 kts 134°
2026-05-07 18:51 32.69950 -83.64495 20956 ft 527 kts 122°
2026-05-07 18:51 32.68494 -83.60474 20958 ft 533 kts 112°
2026-05-07 18:51 32.67578 -83.56189 20946 ft 538 kts 103°
2026-05-07 18:51 32.66943 -83.51804 20948 ft 538 kts 102°
2026-05-07 18:52 32.66334 -83.47424 20939 ft 538 kts 102°
2026-05-07 18:52 32.65713 -83.43037 20946 ft 538 kts 102°
2026-05-07 18:52 32.65070 -83.38662 20947 ft 538 kts 102°
2026-05-07 18:52 32.64414 -83.34347 20949 ft 538 kts 103°
2026-05-07 18:53 32.63737 -83.29988 20951 ft 538 kts 103°
2026-05-07 18:53 32.63052 -83.25627 20958 ft 538 kts 103°
2026-05-07 18:53 32.62364 -83.21260 20961 ft 538 kts 103°
2026-05-07 18:53 32.61673 -83.16885 20960 ft 538 kts 103°
2026-05-07 18:54 32.60985 -83.12522 20957 ft 538 kts 103°
2026-05-07 18:54 32.60295 -83.08149 20963 ft 538 kts 103°
2026-05-07 18:54 32.59606 -83.03784 20962 ft 537 kts 103°
2026-05-07 18:54 32.58917 -82.99435 20961 ft 537 kts 103°
2026-05-07 18:55 32.58227 -82.95086 20960 ft 537 kts 103°
2026-05-07 18:55 32.57535 -82.90738 20964 ft 536 kts 103°
2026-05-07 18:55 32.56851 -82.86446 20964 ft 536 kts 103°
2026-05-07 18:55 32.56133 -82.82091 20962 ft 535 kts 105°
2026-05-07 18:56 32.55252 -82.77808 20945 ft 534 kts 108°
2026-05-07 18:56 32.54282 -82.73562 20950 ft 533 kts 108°
2026-05-07 18:56 32.53274 -82.69331 20959 ft 533 kts 109°
2026-05-07 18:56 32.52262 -82.65105 20938 ft 533 kts 108°
2026-05-07 18:57 32.51262 -82.60884 20932 ft 532 kts 108°
2026-05-07 18:57 32.50271 -82.56648 20936 ft 532 kts 108°
2026-05-07 18:57 32.49294 -82.52428 20942 ft 532 kts 108°
2026-05-07 18:57 32.48320 -82.48200 20954 ft 532 kts 108°
2026-05-07 18:58 32.47358 -82.44019 20938 ft 533 kts 108°
2026-05-07 18:58 32.46383 -82.39786 20938 ft 533 kts 108°
2026-05-07 18:58 32.45406 -82.35554 20930 ft 531 kts 108°
2026-05-07 18:58 32.44436 -82.31361 20886 ft 521 kts 108°
2026-05-07 18:59 32.43490 -82.27275 20481 ft 511 kts 108°
2026-05-07 18:59 32.42551 -82.23233 19863 ft 507 kts 108°
2026-05-07 18:59 32.41613 -82.19213 19165 ft 505 kts 108°
2026-05-07 18:59 32.40681 -82.15223 18548 ft 501 kts 108°
2026-05-07 19:00 32.39757 -82.11272 17957 ft 495 kts 108°
2026-05-07 19:00 32.38843 -82.07366 17352 ft 490 kts 108°
2026-05-07 19:00 32.37947 -82.03543 16742 ft 484 kts 108°
2026-05-07 19:00 32.37049 -81.99719 16152 ft 479 kts 108°
2026-05-07 19:01 32.36162 -81.95945 15538 ft 474 kts 108°
2026-05-07 19:01 32.35284 -81.92212 15147 ft 464 kts 107°
2026-05-07 19:01 32.34426 -81.88569 14657 ft 457 kts 107°
2026-05-07 19:01 32.33589 -81.84947 14039 ft 455 kts 105°
2026-05-07 19:02 32.32968 -81.81285 13395 ft 453 kts 101°
2026-05-07 19:02 32.32461 -81.77622 12825 ft 449 kts 100°
2026-05-07 19:02 32.32001 -81.74050 12283 ft 443 kts 99°
2026-05-07 19:02 32.31538 -81.70466 11723 ft 439 kts 100°
2026-05-07 19:03 32.31067 -81.66915 11161 ft 435 kts 100°
2026-05-07 19:03 32.30589 -81.63401 10621 ft 430 kts 101°
2026-05-07 19:03 32.30105 -81.59921 10049 ft 428 kts 101°
2026-05-07 19:03 32.29616 -81.56462 9476 ft 424 kts 102°
2026-05-07 19:04 32.29129 -81.53033 8896 ft 421 kts 102°
2026-05-07 19:04 32.28644 -81.49640 8336 ft 417 kts 101°
2026-05-07 19:04 32.28163 -81.46271 7781 ft 414 kts 101°
2026-05-07 19:04 32.27684 -81.42923 7216 ft 411 kts 101°
2026-05-07 19:05 32.27214 -81.39638 6687 ft 409 kts 102°
2026-05-07 19:05 32.26738 -81.36324 6129 ft 407 kts 101°
2026-05-07 19:05 32.26267 -81.33045 5578 ft 403 kts 102°
2026-05-07 19:05 32.25797 -81.29789 5049 ft 400 kts 102°
2026-05-07 19:06 32.25332 -81.26556 4550 ft 396 kts 102°
2026-05-07 19:06 32.24419 -81.20237 3667 ft 384 kts 102°
2026-05-07 19:06 32.23970 -81.17143 3228 ft 378 kts 102°
2026-05-07 19:07 32.23543 -81.14191 3060 ft 353 kts 102°
2026-05-07 19:07 32.23142 -81.11423 2903 ft 332 kts 102°
2026-05-07 19:07 32.22615 -81.08871 2742 ft 307 kts 121°
2026-05-07 19:07 32.21353 -81.07063 2606 ft 271 kts 155°
2026-05-07 19:08 32.19726 -81.06412 2491 ft 236 kts 182°
2026-05-07 19:08 32.18139 -81.06245 2339 ft 224 kts 183°
2026-05-07 19:08 32.16599 -81.06093 2045 ft 219 kts 183°
2026-05-07 19:08 32.15096 -81.05963 1973 ft 211 kts 184°
2026-05-07 19:09 32.13632 -81.06011 2059 ft 210 kts 204°
2026-05-07 19:09 32.12530 -81.06982 1909 ft 197 kts 243°
2026-05-07 19:09 32.12374 -81.08460 1737 ft 181 kts 283°
2026-05-07 19:09 32.12786 -81.09803 1496 ft 165 kts 278°
2026-05-07 19:10 32.12858 -81.11034 1386 ft 141 kts 266°
2026-05-07 19:10 32.12826 -81.12153 1289 ft 130 kts 263°
2026-05-07 19:10 32.12802 -81.13197 1157 ft 127 kts 267°
2026-05-07 19:10 32.12810 -81.14286 994 ft 139 kts 265°
2026-05-07 19:11 32.12802 -81.15447 897 ft 146 kts 268°
2026-05-07 19:11 32.12820 -81.16612 580 ft 139 kts 269°
2026-05-07 19:11 32.12833 -81.17777 284 ft 142 kts 268°
2026-05-07 19:11 32.12848 -81.18880 61 ft 125 kts 266°
2026-05-07 19:12 32.12855 -81.19629 43 ft 36 kts 270°
2026-05-07 19:12 32.12858 -81.19919 41 ft 33 kts 270°
2026-05-07 19:12 32.12861 -81.20194 42 ft 31 kts 270°
2026-05-07 19:12 32.12954 -81.20335 48 ft 18 kts
2026-05-07 19:13 32.13003 -81.20332 50 ft 0 kts
2026-05-07 19:13 32.13015 -81.20332 51 ft 16 kts 360°
2026-05-07 19:13 32.13175 -81.20330 52 ft 24 kts 360°
2026-05-07 19:13 32.13336 -81.20331 52 ft 23 kts 359°
2026-05-07 19:14 32.13443 -81.20407 53 ft 21 kts 279°
2026-05-07 19:14 32.13448 -81.20572 53 ft 20 kts 271°
2026-05-07 19:14 32.13478 -81.20649 53 ft 8 kts
2026-05-07 19:14 32.13516 -81.20647 53 ft 0 kts